Zurück zum Katalog

CZ-6A DEB

AktivSSO
NORAD 54612·DEBRIS·🇨🇳 China

Gestartet Nov 11, 2022 von Taiyuan Satellite Launch Center

Loading…

Nächste Überflüge (nächste 24 Stunden)

TLE

AktuellSource: Space-Track

Epoche: Sep 14, 2026, 10:10 UTC

1 54612U 22151NN  26257.42383527  .00000546  00000-0  31761-3 0  9991
2 54612  98.8405 256.0216 0050869  96.0812 264.6159 14.12041398196967

Verfolge CZ-6A DEB in Echtzeit mit AllMySat

Download on the App Store